Flag Weather past 2 weeks in Hanoi, Vietnam

Now
84 °F

Partly sunny.


Feels Like: 90 °F
Forecast: 72 / 83 °F
Wind: 9 mph from Southeast

Location: Ha Noi Airport

Current Time: Nov 26, 2014 at 2:52:34 PM

Latest Report: Nov 26, 2014 at 2:30 PM


Visibility: N/A

Pressure: 29.77 "Hg

Humidity: 66%

Dew point: 72 °F

Location of HanoiLocation

Historic Weather in Hanoi — Graph

°F

Hanoi temperature yesterday

Maximum temperature yesterday: 84 °F (at 1:00 PM)
Minimum temperature yesterday: 72 °F (at 2:00 AM)
Average temperature yesterday: 77 °F

Past Weeks' High & Low Weather Summary

 TemperatureHumidityPressure
High84 °F (Nov 23, 3:00 PM)100% (Nov 11, 4:00 PM)30.30 "Hg (Nov 11, 4:00 PM)
Low61 °F (Nov 20, 1:30 AM)51% (Nov 14, 12:30 PM)29.80 "Hg (Nov 26, 1:00 PM)
Average71 °F78%30.04 "Hg
* Reported Nov 11 1:00 PM — Nov 26 1:30 PM, Hanoi, Weather by CustomWeather, © 2014

Note: Actual official high and low records may vary slightly from our data, if they occured in-between our weather recording intervals... More about our weather records

Advertising

Hanoi weather history for previous 24 hours

 ConditionsComfort  
Time TempWeatherWind HumidityBarometerVisibility
1:30 PM
Nov 26
84 °FPartly sunny.8 mph66%29.80 "HgN/A
1:00 PM82 °FPartly sunny.8 mph66%29.80 "HgN/A
12:30 PM81 °FPartly sunny.9 mph74%29.83 "HgN/A
12:00 PM82 °FPartly sunny.3 mph70%29.86 "Hg6 mi
11:30 AM79 °FPartly sunny.8 mph84%29.89 "Hg4 mi
11:00 AM79 °FPartly sunny.8 mph79%29.89 "Hg4 mi
10:30 AM79 °FPartly sunny.8 mph84%29.92 "Hg4 mi
10:00 AM79 °FScattered clouds.7 mph79%29.92 "Hg3 mi
9:30 AM77 °FPartly sunny.7 mph83%29.92 "Hg3 mi
9:00 AM75 °FPartly sunny.8 mph89%29.92 "Hg3 mi
8:30 AM75 °FScattered clouds.7 mph89%29.92 "Hg3 mi
8:00 AM73 °FFog.7 mph94%29.92 "Hg3 mi
7:30 AM73 °FFog.7 mph94%29.89 "Hg2 mi
7:00 AM73 °FFog.7 mph94%29.89 "Hg2 mi
6:30 AM72 °FFog.6 mph100%29.89 "Hg1 mi
6:00 AM72 °FFog.7 mph100%29.86 "Hg1 mi
5:30 AM73 °FFog.7 mph94%29.86 "Hg1 mi
5:00 AM73 °FFog.7 mph100%29.86 "Hg1 mi
4:30 AM73 °FFog.7 mph100%29.86 "Hg1 mi
4:00 AM73 °FFog.6 mph100%29.83 "Hg2 mi
3:30 AM73 °FFog.8 mph100%29.86 "Hg2 mi
3:00 AM73 °FFog.7 mph100%29.86 "Hg1 mi
2:30 AM73 °FFog.7 mph94%29.86 "Hg1 mi
2:00 AM73 °FFog.8 mph94%29.86 "Hg3 mi
1:30 AM73 °FPassing clouds.9 mph94%29.86 "Hg3 mi
1:00 AM75 °FFog.8 mph89%29.89 "Hg3 mi
12:30 AM75 °FFog.7 mph94%29.89 "Hg3 mi
12:00 AM73 °FFog.6 mph94%29.89 "Hg3 mi
11:30 PM
Nov 25
73 °FFog.6 mph94%29.89 "Hg3 mi
11:00 PM75 °FPartly cloudy.8 mph94%29.89 "Hg3 mi
10:30 PM75 °FPassing clouds.8 mph94%29.89 "Hg3 mi
10:00 PM75 °FClear.8 mph89%29.89 "Hg3 mi
9:30 PM75 °FClear.10 mph89%29.89 "Hg4 mi
9:00 PM77 °FPassing clouds.9 mph83%29.89 "Hg4 mi
8:30 PM77 °FPartly cloudy.8 mph83%29.86 "Hg4 mi
8:00 PM77 °FClear.8 mph79%29.86 "Hg3 mi
7:30 PM77 °FFog.6 mph74%29.86 "Hg3 mi
7:00 PM79 °FFog.5 mph70%29.83 "Hg2 mi
6:30 PM79 °FClear.5 mph70%29.83 "Hg5 mi
6:00 PM79 °FClear.5 mph65%29.83 "Hg6 mi
5:30 PM81 °FClear.5 mph66%29.83 "Hg5 mi
5:00 PM81 °FPassing clouds.6 mph62%29.83 "HgN/A
4:30 PM82 °FSunny.6 mph58%29.83 "Hg10 mi
4:00 PM82 °FPartly sunny.5 mph58%29.83 "HgN/A
3:30 PM84 °FPartly sunny.6 mph58%29.83 "HgN/A
3:00 PM84 °FPartly sunny.6 mph58%29.83 "HgN/A
2:30 PM82 °FPartly sunny.3 mph62%29.83 "HgN/A
2:00 PM82 °FBroken clouds.5 mph66%29.86 "Hg6 mi
Weather by CustomWeather, © 2014

See weather overviewHow to use our weather pages